CZ-6A DEB

Satellite information

Favourite Embed

Satellite Type and Status

DEBRISIN ORBIT

Key statistics

Satellite CZ-6A DEB at a glance.

Uptime

909

Days in orbit

Revolutions

≈ 14.3

Per day

Orbit

SSO

Sun Synchronous Orbit

Inclination

98.6

Latest

Satellite identification and parameters

Extended collection of information and parameters for CZ-6A DEB.

Object identification

Identified? True

Debris? True

Object name: CZ-6A DEB

International designator: 2022-151W

Object number (NORAD): 54279

Object ID (CCSDS): 54279

Country: PEOPLES REPUBLIC OF CHINA (PRC)

Current information (Y/N): Y

RCS size: SMALL

Orbital parameters

Period: 100.633 minutes

Inclination: 98.6259 deg

SMA: 7166.744 km

Apoapsis: 888.596 km

Periapsis: 688.622 km

RAAN: 139.9848 deg

Eccentricy: 0.0139515

Argument of periapsis: 183.474 deg

Mean anomaly: 176.5487 deg

Mean motion: 14.3093512 rev/day

Mean motion (dot): 0.00000702 rev/day2

B* drag term: 0.00025617 1/REarth

Two-line elements (TLE)

Creation date: May 8, 2025, 3:01 a.m.

Reference frame: TEME

Reference center: EARTH

Epoch: May 7, 2025, 4:15 p.m. UTC

TLE line 0: 0 CZ-6A DEB

TLE line 1: 1 54279U 22151W 25127.67771991 .00000702 00000-0 25617-3 0 9995

TLE line 2: 2 54279 98.6259 139.9848 0139515 183.4740 176.5487 14.30935120129100

Live tracking on map

Real-time ground track for satellite CZ-6A DEB.

In-orbit conjunctions

A list of the most updated potential collisions computed for object CZ-6A DEB.

Target Orbit TCA Probability of collision Miss distance Type
OAO 2 LEO 2024-11-27 11:12:58 0.0001362824 89.0 (m) PAYLOAD
CZ-4 DEB SSO 2024-11-11 14:34:22 0.0001406706 990.0 (m) DEBRIS

Associated space launch

Chinese satellite reported for atmospheric/ocean/environmental/spatial parameter research purposes, details TBD.

CZ-6A DEB was lifted into orbit during the mission ‘Long March 6A | Yunhai 3’, on board a Long March 6A space rocket.

The launch took place on Nov. 11, 2022, 10:52 p.m. from Launch Complex 9A.

For more information about the launch, click the button.

Launch to space Long March 6A | Yunhai 3
Long March 6A | Yunhai 3

Agency: N/A

Status: Launch Successful

Launch date: Nov. 11, 2022, 10:52 p.m. UTC

Rocket: Long March 6A

Launch pad: Launch Complex 9A

Location: Taiyuan Satellite Launch Center, People's Republic of China

...

Latest news about this satellite

There are no fresh news available about this satellite. Check back as we update our databases every day.


Newsletter sign-up

Weekly statistics, charts and insights to help you stay on top of the space industry.